Regional Weather Roundup
Issued by NWS

Home | Current Version | Previous Version | Graphics & Text | Print | Product List | Glossary On
Versions: 1 2 3 4 5 6 7 8 9 10 11 12 13 14 15 16 17 18 19 20 21 22 23 24 25 26 27 28 29 30 31 32 33 34 35 36 37 38 39 40 41 42 43 44 45 46 47 48 49 50
000
ASUS43 KFSD 042102
RWRSD

WEATHER ROUNDUP FOR SOUTH DAKOTA
NATIONAL WEATHER SERVICE SIOUX FALLS SD
300 PM CST WED MAR 04 2015

NOTE: "FAIR" INDICATES FEW OR NO CLOUDS BELOW 12,000 FEET WITH NO
SIGNIFICANT WEATHER AND/OR OBSTRUCTIONS TO VISIBILITY.


SDZ001>005-009-010-012>017-042200-
NORTHWEST AND NORTH CENTRAL SOUTH DAKOTA

CITY           SKY/WX    TMP DP  RH WIND       PRES   REMARKS
BUFFALO          N/A     14  -7  38 NW24G30   30.12F WCI  -5
FAITH            N/A     14  -6  40 NW18G31   30.22F WCI  -3
MOBRIDGE       MOSUNNY   12  -9  38 NW17G25   30.28S WCI  -5
$$

SDZ012>016-024>037-041>051-057-063-072>074-042200-
SOUTHWEST AND SOUTH CENTRAL SOUTH DAKOTA

CITY           SKY/WX    TMP DP  RH WIND       PRES   REMARKS
RAPID CTY ARPT SUNNY     17   3  54 N16       30.19F WCI   2
PIERRE         MOSUNNY   13  -4  46 NW17G25   30.31F WCI  -4
CUSTER         SUNNY     12 -14  30 NW16G26   29.99S WCI  -5
ELLSWORTH AFB  SUNNY     15  -1  49 N16       30.17S WCI   0
PHILIP         MOSUNNY   17   2  51 NW14G26   30.28S WCI   3
PINE RIDGE     MOSUNNY   19   2  47 W14       30.19F WCI   6
SPEARFISH      FAIR      10  -2  56 MISG      30.14F
WINNER         MOCLDY    15  -1  49 NW22G28   30.30S WCI  -3
$$

SDZ004>011-016>023-039-040-042200-
NORTHEAST SOUTH DAKOTA

CITY           SKY/WX    TMP DP  RH WIND       PRES   REMARKS
ABERDEEN       PTSUNNY    4 -10  52 NW22      30.37R WCI -18
WATERTOWN      MOSUNNY    2 -10  57 NW20      30.27S WCI -19
$$

SDZ017-020-022-023-036>040-048>070-042200-
SOUTHEAST SOUTH DAKOTA

CITY           SKY/WX    TMP DP  RH WIND       PRES   REMARKS
SIOUX FALLS    PTSUNNY    9  -3  58 NW21G28   30.31R WCI -11
HURON          PTSUNNY    8  -5  55 N18G26    30.36S WCI -11
MITCHELL       CLOUDY    12  -3  51 NW17      30.36R WCI  -5
YANKTON        MOSUNNY  N/A N/A N/A NW28G33   30.33R
$$

ABBREVIATIONS USED IN REMARKS
   TC - TEMPERATURE IN CELSIUS
  WCI - WIND CHILL INDEX
   HX - HEAT INDEX
  VSB - VISIBILITY




USA.gov is the U.S. government's official web portal to all federal, state and local government web resources and services.